Regional Weather Roundup
Issued by NWS

Home | Current Version | Previous Version | Text Only | Print | Product List | Glossary Off
Versions: 1 2 3 4 5 6 7 8 9 10 11 12 13 14 15 16 17 18 19 20 21 22 23 24 25 26 27 28 29 30 31 32 33 34 35 36 37 38 39 40 41 42 43 44 45 46 47 48 49 50

000
ASUS44 KMEG 232010
RWRTN
TENNESSEE HOURLY STATE WEATHER ROUNDUP
NATIONAL WEATHER SERVICE MEMPHIS TN
300 PM CDT WED AUG 23 2017

TNZ002-004-019-021-049-052-054-088>092-232100-
WEST TENNESSEE

CITY           SKY/WX    TMP DP  RH WIND       PRES   REMARKS
MEMPHIS INTL   CLOUDY    85  68  56 N10       30.00F
NWS MEMPHIS      N/A     83 N/A N/A MISG        N/A
JACKSON        CLOUDY    81  64  56 N9        30.02F
DYERSBURG      CLOUDY    81  60  48 N12       30.03F
SOMERVILLE     MOSUNNY   82  66  57 VRB7      30.00F
COVINGTON      SUNNY     81  63  54 N8        30.02F
UNION CITY     SUNNY     81  59  47 N8        30.01F
BOLIVAR        SUNNY     81  66  61 NW6       30.00F
PARIS          SUNNY     79  57  47 N8        30.01F
HUNTINGDON     SUNNY     81  59  47 VRB7      30.01F
LEXINGTON      SUNNY     79  64  61 N6        30.00F
SELMER         MOSUNNY   82  64  54 N6        29.99F
SAVANNAH       MOSUNNY   82  66  57 NE10      29.98F
$$

TNZ008-025-027-028-033-062-065-066-232100-
NORTH MIDDLE TENNESSEE

CITY           SKY/WX    TMP DP  RH WIND       PRES   REMARKS
NASHVILLE      PTSUNNY   83  57  41 N9        30.00F
PORTLAND       SUNNY     77  59  53 N6G13     30.00F
CLARKSVILLE    MOSUNNY   80  54  40 N9        30.01F
SMYRNA         MOSUNNY   83  61  47 NW9G18    30.00F
COOKEVILLE     MOSUNNY   81  63  54 W5G12     29.99F
GALLATIN       SUNNY     81  55  41 NW9       30.02F
CROSSVILLE     MOSUNNY   79  58  48 NW8       30.02F
$$

TNZ061-075-076-078-094-096-097-232100-
SOUTH MIDDLE TENNESSEE

CITY           SKY/WX    TMP DP  RH WIND       PRES   REMARKS
FAYETTEVILLE   SUNNY     82  63  51 N7        29.98F
TULLAHOMA      MOSUNNY   79  61  53 N9        30.01F
MCMINNVILLE    SUNNY     82  63  51 NW9       29.99F
COLUMBIA       SUNNY     82  61  47 N9        29.97F
SHELBYVILLE    SUNNY     81  63  54 NW10      29.98F
$$

TNZ017-018-042-046-047-232100-
NORTHEAST TENNESSEE

CITY           SKY/WX    TMP DP  RH WIND       PRES   REMARKS
TRI CITIES     MOSUNNY   81  63  54 N8        29.95F
ELIZABETHTON   MOSUNNY   82  64  54 CALM      29.95F
$$

TNZ012-013-036-069-073-074-232100-
CENTRAL EAST TENNESSEE

CITY           SKY/WX    TMP DP  RH WIND       PRES   REMARKS
KNOXVILLE      MOSUNNY   86  60  41 N8        29.93F
OAK RIDGE      MOSUNNY   86  59  39 NW6       29.96F
DOWNTOWN KNOXV MOSUNNY   84  64  51 CALM      29.92F
GATLINBURG     MOSUNNY   86  61  42 VRB7      29.93F
MORRISTOWN     MOSUNNY   86  63  45 VRB3G12   29.94F
JACKSBORO      MOSUNNY   82  63  51 CALM      30.00S
$$

TNZ083-085-099-232100-
SOUTHEAST TENNESSEE

CITY           SKY/WX    TMP DP  RH WIND       PRES   REMARKS
CHATTANOOGA    MOSUNNY   87  63  44 NW6       29.94F
DAYTON         PTCLDY    88  66  48 NW6G15    29.93F HX  90
$$

SKY/WX REPORTED AS FAIR MEANS FEW OR NO CLOUDS BELOW
12 THOUSAND FEET.





USA.gov is the U.S. government's official web portal to all federal, state and local government web resources and services.